Location: Berg
(47.2344°N, 9.5296°E)
Time: 17:33:18
(UTC+00:00)

Cosmos 1833 Rocket - Pass Details

Date: 24 January 2021
Orbit: 833 x 839 km, 71.0° (Epoch: 01 March)

Event Time Altitude Azimuth Distance (km) Brightness Sun altitude
Rises 16:40:51 0° 339° (NNW) 3,392 5.8 -5.3°
Reaches altitude 10° 16:44:06 10° 357° (N) 2,455 4.9 -5.8°
Maximum altitude 16:47:57 19° 41° (NE) 1,922 4.1 -6.4°
Drops below altitude 10° 16:51:48 10° 84° (E) 2,449 4.5 -7.0°
Enters shadow 16:53:10 - 94° (E) 2,815 4.9 -7.2°
